ALPHA (53110 NORAD) Tracking and Keplerian Element Data

This shows tracking and keplerian element data for the satellite.

Feedback or suggestion? Click here.




ElementValue
Catalog53110
NameALPHA
Epoch Orbit341
Epoch Day249.47026243
Epoch Year2022
RAAN58.2837
Inclination70.1887
Eccentricity0.0239393
Argument of Perigee148.51
Mean Anonmoly213.0256
Mean Motion6.42697884
Decay Rate-3E-08
L11 53110U 22080F 22249.47026243 -.00000003 00000+0 00000+0 0 9991
L22 53110 70.1887 58.2837 0239393 148.5100 213.0256 6.42697884 3415

Live tracking and technical data element details for ALPHA (NORAD 53110). ALPHA can be tracked NOW for your location showing map with azimuth and elevation plus other details from your city location.

Track the satellite on the map from your city or location and see movement details for azimuth, elevation, latitude, longitude, range, height, and movement on the map or in text.







IsCatalogInMostPopularTable: catalog: 53110, numindb: 6
Update: records affected: 2



GetName: 53110 ALPHA

Hit Count: updated at: Fri, 30 Sep 2022 03:57:54 GMT